This is the latest recevied weather packets stored in our database for station/object LA3SP-1. If no packets are shown the sender has not sent any weather packets the latest 10 day(s).
| Time | Temp. | Humidity | Pressure | Rain* | Wind** | Luminosity | Snow |
|---|---|---|---|---|---|---|---|
| 1778087117 | 2.22° C | 53% | 1007.1 hPa | 0 mm | - | - | - |
| 1778086515 | 2.22° C | 53% | 1007 hPa | 0 mm | - | - | - |
| 1778085914 | 2.22° C | 53% | 1007 hPa | 0 mm | - | - | - |
| 1778085312 | 2.78° C | 52% | 1007.1 hPa | 0 mm | - | - | - |
| 1778084711 | 2.78° C | 52% | 1007 hPa | 0 mm | - | - | - |
| 1778084109 | 2.78° C | 52% | 1007.2 hPa | 0 mm | - | - | - |
| 1778083489 | 3.89° C | 53% | 1007.3 hPa | 0 mm | - | - | - |
| 1778082907 | 3.33° C | 52% | 1007.2 hPa | 0 mm | - | - | - |
| 1778082305 | 3.33° C | 52% | 1007.1 hPa | 0 mm | - | - | - |
| 1778081704 | 3.89° C | 53% | 1007.3 hPa | 0 mm | - | - | - |
| 1778081274 | 3.33° C | 50% | 1007 hPa | 0 mm | - | - | - |
| 1778080502 | 3.33° C | 50% | 1007.1 hPa | 0 mm | - | - | - |
| 1778079900 | 3.33° C | 50% | 1007 hPa | 0 mm | - | - | - |
| 1778079299 | 4.44° C | 47% | 1007 hPa | 0 mm | - | - | - |
| 1778078697 | 4.44° C | 47% | 1007.2 hPa | 0 mm | - | - | - |
| 1778078096 | 5° C | 46% | 1007.2 hPa | 0 mm | - | - | - |
| 1778077494 | 5° C | 46% | 1007.2 hPa | 0 mm | - | - | - |
| 1778076893 | 5° C | 45% | 1007.3 hPa | 0 mm | - | - | - |
| 1778075691 | 5° C | 41% | 1007.1 hPa | 0 mm | - | - | - |
| 1778075089 | 5° C | 41% | 1007.2 hPa | 0 mm | - | - | - |
| 1778074487 | 6.11° C | 41% | 1007 hPa | 0 mm | - | - | - |
| 1778073886 | 7.78° C | 40% | 1007.2 hPa | 0 mm | - | - | - |
| 1778073285 | 8.33° C | 44% | 1007.1 hPa | 0 mm | - | - | - |
| 1778072683 | 7.78° C | 45% | 1007.2 hPa | 0 mm | - | - | - |
| 1778072082 | 6.11° C | 46% | 1007.1 hPa | 0 mm | - | - | - |
* Rain latest 24 hours (hover to see other rain measurements)
** Current wind speed in m/s (hover to see current wind gust speed)